Weather observations for the past three days for
Hartford, Hartford-Brainard Airport
Imperial (Metric)
Date Time (edt) Wind (mph) Vis. (mi.) Weather Sky Cond. Temperature (ºF) Relative Humidity Wind Chill (°F) Heat Index (°F) Pressure Precipitation (in)
Air Dwpt 6 hour altimeter (in) sea level (mb) 1 hr 3 hr 6 hr
Max. Min.
16 16:53 Vrbl 6 10.00 Fair CLR 77 46.9 35% 78 30.19 1022.2
16 15:53 Vrbl 3 10.00 Fair CLR 75.9 45 33% 77 30.2 1022.7
16 14:53 Vrbl 3 10.00 A Few Clouds FEW065 75 45 34% 77 30.22 1023.2
16 13:53 Calm 10.00 Fair CLR 73.9 45 75 62.1 36% 30.23 1023.5
16 12:53 NW 8 10.00 Fair CLR 73 46 38% 30.24 1024.0
16 11:53 N 7 10.00 Fair CLR 72 44.1 37% 30.26 1024.5
16 10:53 E 5 10.00 Fair CLR 69.1 44.1 41% 30.27 1025.0
16 09:53 Vrbl 3 10.00 Fair CLR 68 42.1 39% 30.27 1025.0
16 08:53 NE 8 10.00 Fair CLR 64.9 46 51% 30.28 1025.2
16 07:53 N 9 10.00 Fair CLR 62.1 46.9 62.1 55 58% 30.27 1025.0
16 06:53 NE 6 10.00 Fair CLR 59 48 67% 30.26 1024.5
16 05:53 N 6 10.00 Fair CLR 55 46.9 74% 30.23 1023.6
16 04:53 N 3 10.00 Fair CLR 55.9 48 75% 30.2 1022.5
16 03:53 N 3 10.00 Fair CLR 57.9 46.9 67% 30.18 1022.0
16 02:53 N 5 10.00 Fair CLR 59 46.9 64% 30.17 1021.7
16 01:53 N 8 10.00 Fair CLR 61 48.9 75.9 61 65% 30.15 1021.1
16 00:53 N 8 10.00 Fair CLR 64.9 50 59% 30.14 1020.7
15 23:53 N 7 10.00 Mostly Cloudy BKN075 66.9 48.9 53% 30.13 1020.2
15 22:53 N 5 10.00 Mostly Cloudy BKN075 66 53.1 63% 30.1 1019.1
15 21:53 Calm 10.00 Fair CLR 66 54 65% 30.07 1018.0
15 20:53 NW 6 10.00 A Few Clouds FEW080 73.9 46.9 38% 30.03 1017.0
15 19:53 N 8 10.00 A Few Clouds FEW075 75.9 46 79 75.9 35% 78 30.02 1016.5
15 18:53 N 13 G 20 10.00 A Few Clouds FEW075 78.1 45 31% 78 30 1015.8
15 17:53 NW 8 G 18 10.00 Partly Cloudy SCT075 78.1 46.9 33% 78 29.99 1015.4
15 16:53 NW 8 G 21 10.00 A Few Clouds FEW075 78.1 45 31% 78 29.99 1015.6
15 15:53 NW 13 G 22 10.00 A Few Clouds FEW070 78.1 45 31% 78 29.98 1015.1
15 14:53 NW 9 G 20 10.00 A Few Clouds FEW065 78.1 46 32% 78 29.98 1015.1
15 13:53 NW 8 G 21 10.00 Fair CLR 78.1 45 78.1 69.1 31% 78 29.97 1015.0
15 12:53 N 13 G 21 10.00 Fair CLR 77 48 36% 78 29.98 1015.1
15 11:53 N 12 G 21 10.00 Mostly Cloudy BKN060 73.9 51.1 45% 29.97 1014.9
15 10:53 N 13 10.00 Fair CLR 73.9 51.1 45% 29.96 1014.4
15 09:53 N 16 G 22 10.00 Fair CLR 72 55 55% 29.96 1014.4
15 08:53 N 14 G 24 10.00 Fair CLR 70 55 59% 29.96 1014.4
15 07:53 N 13 10.00 Fair CLR 69.1 55.9 69.1 63 63% 29.95 1014.1
15 06:53 N 7 10.00 A Few Clouds FEW100 66 59 78% 29.93 1013.4
15 05:53 N 5 10.00 A Few Clouds FEW100 64 60.1 87% 29.9 1012.5
15 04:53 N 6 10.00 Fair CLR 64 60.1 87% 29.87 1011.4
15 03:53 N 3 10.00 Mostly Cloudy BKN110 64.9 61 87% 29.86 1011.0
15 02:53 Calm 10.00 Fair CLR 64 62.1 93% 29.85 1010.7
15 01:53 Calm 10.00 Fair CLR 64.9 61 75 64.9 87% 29.85 1010.8 0.05
15 00:53 W 5 10.00 Mostly Cloudy BKN110 66.9 61 81% 29.87 1011.4
14 23:53 N 7 10.00 Mostly Cloudy SCT095 BKN110 66.9 62.1 84% 29.86 1011.3
14 22:53 NW 6 10.00 Overcast FEW021 BKN100 OVC110 71.1 66.9 87% 29.87 1011.3 0.05
14 21:53 S 12 G 22 8.00 Light Rain FEW036 BKN100 BKN110 71.1 66.9 87% 29.83 1010.1 0.04
14 20:53 Vrbl 5 G 18 9.00 Light Rain FEW031 OVC110 73 70 90% 29.84 1010.5 0.01
14 19:53 SW 5 10.00 Mostly Cloudy BKN095 75 69.1 82.9 73 82% 75 29.84 1010.3 0.11
14 18:53 Calm 10.00 Mostly Cloudy BKN095 75.9 66.9 74% 77 29.82 1009.8 0.01
14 17:53 Calm 10.00 Mostly Cloudy FEW090 BKN110 75 70 84% 75 29.81 1009.5
14 16:53 NW 6 9.00 Light Rain FEW080 BKN095 OVC110 77 64.9 66% 79 29.83 1010.0 0.01 0.1
14 15:53 SW 6 10.00 Partly Cloudy FEW031 SCT041 SCT075 81 71.1 72% 85 29.81 1009.6 0.09
14 14:53 S 9 10.00 Partly Cloudy SCT110 82.9 68 61% 86 29.83 1010.0
14 13:53 S 10 10.00 Fair CLR 81 68 82 72 65% 84 29.84 1010.4 0.01
14 12:53 W 5 10.00 A Few Clouds FEW070 FEW095 78.1 66.9 69% 80 29.86 1011.3 0.01
14 11:53 SW 7 10.00 Light Rain BKN090 OVC110 80.1 64.9 60% 82 29.88 1011.8
14 10:53 S 10 10.00 A Few Clouds FEW075 81 66 61% 83 29.87 1011.4
14 09:53 SW 9 10.00 A Few Clouds FEW075 78.1 64.9 64% 80 29.87 1011.4
14 08:53 S 7 10.00 Fair CLR 75 63 66% 77 29.88 1011.9
14 07:53 S 9 G 20 10.00 Fair CLR 72 61 72 66.9 68% 29.88 1011.9
14 06:53 S 8 10.00 Fair CLR 70 61 73% 29.88 1011.7
14 05:53 Vrbl 5 10.00 Fair CLR 66.9 61 81% 29.88 1011.7
14 04:53 S 6 10.00 Fair CLR 66.9 61 81% 29.88 1011.9
14 03:53 S 6 10.00 Fair CLR 66.9 61 81% 29.87 1011.5
14 02:53 S 7 10.00 Fair CLR 66.9 60.1 79% 29.89 1012.1
14 01:53 S 6 10.00 Fair CLR 68 60.1 78.1 68 76% 29.9 1012.5
14 00:53 S 6 10.00 Fair CLR 69.1 60.1 73% 29.92 1013.3
13 23:53 S 7 10.00 Fair CLR 70 59 68% 29.94 1013.8
13 22:53 S 8 10.00 Fair CLR 71.1 59 66% 29.94 1013.8
13 21:53 S 10 G 18 10.00 Fair CLR 73 57.9 59% 29.95 1014.3
13 20:53 S 8 10.00 Fair CLR 73.9 57.9 57% 29.95 1014.1
13 19:53 S 9 10.00 Fair CLR 78.1 57 87.1 78.1 48% 79 29.95 1014.2
13 18:53 S 13 G 24 10.00 Fair CLR 81 57 44% 81 29.94 1013.6
13 17:53 SW 12 G 22 10.00 Fair CLR 82.9 59 44% 83 29.93 1013.3
Date Time (edt) Wind (mph) Vis. (mi.) Weather Sky Cond. Air Dwpt Max. Min. Relative Humidity Wind Chill (°F) Heat Index (°F) altimeter (in) sea level (mb) 1 hr 3 hr 6 hr
6 hour
Temperature (ºF) Pressure Precipitation (in)